User: anonymous   Login
Location: Unspecified
(0.0000°N, 0.0000°E)
Time: 18:04:13
(UTC+00:00)
Language:

STARLINK-2571 - Orbit

View from above orbital plane
View from above orbital plane
View from above satellite
View from above satellite

Ground track
Ground track

The orbit is defined by the following mean orbital elements,

1 48401U          26145.25803296 +.00000000 +00000-0 +55591-4 0 00002
2 48401  53.1603 336.7770 0001350  63.1760 296.9380 15.31699886    05
Epoch (UTC): 25 May 2026 06:11:34
Eccentricity: 0.0001350
inclination: 53.1603°
perigee height: 470 km
apogee height: 472 km
right ascension of ascending node: 336.7770°
argument of perigee: 63.1760°
revolutions per day: 15.31699886
mean anomaly at epoch: 296.9380°

The dashed part of the orbit path shows where the satellite is in the earth's shadow,  

DLR